Location: Newark
(47.0749°S, 167.3048°W)
Time: 06:11:34
(UTC+00:00)

N. Korean satellite - Visible Passes

Search period start: 20 January 2020 00:00
Search period end: 30 January 2020 00:00
Orbit: 454 x 508 km, 97.2° (Epoch: 19 January)

Date Brightness Start Highest point End Pass type
(mag) Time Alt. Az. Time Alt. Az. Time Alt. Az.
20 Jan 10.5 14:39:06 10° ESE 14:39:58 11° ESE 14:40:50 10° SE visible
23 Jan 10.0 14:54:22 10° E 14:56:40 16° ESE 14:58:58 10° SSE visible
26 Jan 9.7 15:10:25 10° ENE 15:13:24 23° ESE 15:16:24 10° SSE visible
27 Jan 10.2 14:46:23 10° E 14:48:09 13° ESE 14:49:55 10° SE visible
